Thunder Bay, Ontario

12:07 AM EDT on September 25, 2016 (GMT -0400)
Thunder Bay

Weather History for CYQT - November, 2012

Change the Weather History Date:

Saturday, November 17, 2012

  Actual Average Record
Temperature  
Mean Temperature 34 °F -  
Max Temperature 48 °F 33 °F 51 °F (2001)
Min Temperature 19 °F 18 °F 1 °F (2005)
Degree Days  
Heating Degree Days 32    
Moisture  
Dew Point 31 °F    
Average Humidity 86    
Maximum Humidity 100    
Minimum Humidity 66    
Precipitation  
Precipitation 0.00 in - - ()
Sea Level Pressure  
Sea Level Pressure 30.34 in    
Wind  
Wind Speed 3 mph ()    
Max Wind Speed 12 mph    
Max Gust Speed 20 mph    
Visibility 9.9 miles    
Events      
Averages and records for this station are not official NWS values.
T = Trace of Precipitation, MM = Missing Value Source: Averaged Metar Reports

Daily Weather History Graph

Daily Weather History Graph

Search for Another Location

Airport or City:

Trip Planner

Search our weather history database for the weather conditions in past years. The results will help you decide how hot, cold, wet, or windy it might be!

Date:

Astronomy

Nov. 17, 2012 Rise Set
Actual Time 8:08 AM EST 5:15 PM EST
Civil Twilight 7:34 AM EST 5:50 PM EST
Nautical Twilight 6:55 AM EST 6:28 PM EST
Astronomical Twilight 6:18 AM EST 7:05 PM EST
Moon 11:53 AM EST (11/17) 9:26 PM EST (11/17)
Length of Visible Light 10h 15m
Length of Day
9h 07m
Waxing Crescent, 20% of the Moon is Illuminated
Nov 17
Waxing Crescent
Nov 20
First Quarter
Nov 28
Full
Dec 6
Last Quarter
Dec 13
New

Hourly Weather History & Observations

Time (EST) Temp. Windchill Dew Point Humidity Pressure Visibility Wind Dir Wind Speed Gust Speed Precip Events Conditions
12:00 AM 21.2 °F 14.9 °F 21.2 °F 100% 30.43 in 15.0 mi NW 4.6 mph - N/A   Partly Cloudy
1:00 AM 22 °F - 21 °F 95% 30.42 in 10 mi WNW 2.3 mph - -  
1:00 AM 21.2 °F 16.4 °F 21.2 °F 100% 30.42 in 15.0 mi West 3.5 mph - N/A   Scattered Clouds
2:00 AM 21.2 °F - 21.2 °F 100% 30.40 in 15.0 mi Calm Calm - N/A   Scattered Clouds
3:00 AM 21.2 °F 16.4 °F 19.4 °F 93% 30.40 in 15.0 mi West 3.5 mph - N/A   Partly Cloudy
4:00 AM 19.4 °F 14.3 °F 19.4 °F 100% 30.39 in 15.0 mi West 3.5 mph - N/A   Mostly Cloudy
5:00 AM 23.0 °F - 23.0 °F 100% 30.38 in 15.0 mi Calm Calm - N/A   Overcast
6:00 AM 24.8 °F - 23.0 °F 93% 30.38 in 15.0 mi Calm Calm - N/A   Overcast
7:00 AM 25 °F - 23 °F 91% 30.37 in 10 mi NE 2.3 mph - -   Overcast
7:00 AM 24.8 °F - 23.0 °F 93% 30.37 in 15.0 mi Calm Calm - N/A   Mostly Cloudy
8:00 AM 26.6 °F - 24.8 °F 93% 30.36 in 8.0 mi Calm Calm - N/A   Overcast
8:27 AM 26.6 °F - 26.6 °F 100% 30.36 in 7.0 mi Calm Calm - N/A   Overcast
9:00 AM 32.0 °F - 32.0 °F 100% 30.36 in 7.0 mi Variable 2.3 mph - N/A   Overcast
10:00 AM 39.2 °F 34.2 °F 37.4 °F 93% 30.35 in 5.0 mi South 6.9 mph - N/A   Overcast
11:00 AM 41.0 °F 36.4 °F 37.4 °F 87% 30.35 in 5.0 mi South 6.9 mph - N/A   Overcast
12:00 PM 44.6 °F 39.7 °F 37.4 °F 76% 30.34 in 5.0 mi SSW 9.2 mph - N/A   Overcast
1:00 PM 44 °F - 37 °F 70% 30.32 in 6 mi South 8.1 mph - -   Light Haze
1:00 PM 44.6 °F 40.2 °F 37.4 °F 76% 30.32 in 6.0 mi South 8.1 mph - N/A   Overcast
2:00 PM 44.6 °F 40.2 °F 37.4 °F 76% 30.31 in 8.0 mi South 8.1 mph - N/A   Mostly Cloudy
3:00 PM 44.6 °F 39.7 °F 37.4 °F 76% 30.30 in 8.0 mi South 9.2 mph - N/A   Mostly Cloudy
4:00 PM 44.6 °F 40.7 °F 37.4 °F 76% 30.30 in 8.0 mi SSW 6.9 mph - N/A   Overcast
5:00 PM 42.8 °F - 37.4 °F 81% 30.29 in 6.0 mi Calm Calm - N/A   Overcast
6:00 PM 41.0 °F - 37.4 °F 87% 30.29 in 6.0 mi Calm Calm - N/A   Haze
7:00 PM 42 °F - 37 °F 75% 30.28 in 6 mi East 2.3 mph - -   Light Haze
7:00 PM 41.0 °F - 35.6 °F 81% 30.28 in 6.0 mi Calm Calm - N/A   Haze
8:00 PM 44.6 °F 40.2 °F 37.4 °F 76% 30.27 in 8.0 mi SSW 8.1 mph - N/A   Mostly Cloudy
9:00 PM 48.2 °F - 37.4 °F 66% 30.25 in 12.0 mi SW 11.5 mph - N/A   Overcast
10:00 PM 46.4 °F 41.1 °F 37.4 °F 71% 30.25 in 15.0 mi SW 11.5 mph - N/A   Mostly Cloudy
11:00 PM 48.2 °F - 37.4 °F 66% 30.26 in 15.0 mi SW 11.5 mph 19.6 mph N/A   Mostly Cloudy